Location: Bieg
(49.3499°N, 10.3835°E)
Time: 06:12:45
(UTC+00:00)

Okean 2 - Pass Details

Date: 15 August 2024
Orbit: 535 x 549 km, 82.5° (Epoch: 14 September)

Event Time Altitude Azimuth Distance (km) Brightness Sun altitude
Rises 01:21:38 0° 340° (NNW) 2,701 7.4 -21.5°
Reaches altitude 10° 01:24:01 10° 328° (NNW) 1,803 6.3 -21.3°
Enters shadow 01:26:35 25° 291° (WNW) 1,108 4.7 -21.1°
